Temperature
12 12 12 12 12 12 12 11 11 11 11 11 11 11 10 10 10 10 10 10 10 10 10 11 11 12 13 13 13 14 14 15 15 16 15 14 14 14 14 14 14 14 14
12 11 11 11 11 11 11 11 11 11 11 11 11 10 10 10 10 10 10 10 10 10 10 10 10 11 11 12 12 13 13 14 14 15 15 14 14 14 13 13 13 13 14
11 11 10 10 10 10 10 10 10 10 10 10 10 10 10 10 10 10 10 10 10 10 10 10 10 10 10 11 11 12 12 13 13 14 14 14 13 13 13 13 13 13 13
10 9 9 9 9 9 9 9 9 9 9 9 10 10 10 10 10 10 10 10 9 9 9 9 9 9 10 10 10 11 11 12 12 13 13 13 13 13 13 13 12 12 12
9 8 8 8 8 8 8 8 8 8 9 9 9 9 9 9 10 10 10 10 9 9 9 9 9 9 9 9 10 10 11 11 12 12 13 13 13 13 12 12 12 12 12
8 7 7 7 7 7 7 7 7 7 8 8 8 8 9 9 10 9 9 9 9 9 9 9 9 9 9 9 9 10 10 11 11 12 12 13 13 13 12 12 12 12 11
7 7 7 7 6 6 6 6 6 6 7 7 7 7 8 8 9 9 9 9 9 9 9 9 9 10 9 9 9 9 10 10 10 11 12 12 13 13 13 12 12 12 12
7 6 6 6 6 6 6 6 6 6 6 6 6 7 7 7 8 9 9 9 9 9 9 9 9 9 9 9 9 9 9 10 10 11 11 12 12 12 13 13 12 12 11
6 6 6 6 5 5 5 5 5 5 5 6 6 6 6 7 7 8 8 8 8 8 9 9 8 9 8 8 8 9 9 10 10 11 11 11 12 12 12 12 11 11 11
6 5 5 5 5 5 5 5 5 5 5 5 5 6 6 6 7 7 8 8 8 8 8 8 8 8 8 8 8 8 9 9 10 10 11 11 11 11 12 12 12 11 11
5 5 5 5 5 5 5 5 5 5 5 5 5 5 6 6 7 7 7 8 8 8 9 9 9 9 8 8 8 8 9 9 10 10 10 11 11 11 11 11 12 12 12
5 5 5 5 5 5 5 5 5 5 5 5 5 5 6 6 6 7 7 7 8 8 8 9 9 9 8 8 8 8 8 9 9 10 10 10 11 11 11 11 11 11 11
5 5 5 5 5 5 5 5 5 5 5 5 5 5 6 6 6 6 7 7 7 7 8 8 8 8 8 8 8 8 8 8 9 9 10 10 11 11 11 11 11 10 11
5 5 5 5 5 5 5 5 5 5 5 5 5 5 6 6 6 6 7 7 7 7 7 7 8 8 8 7 8 8 8 8 9 9 10 10 10 10 10 10 10 10 10
5 5 5 5 5 5 5 5 5 5 5 5 5 5 5 6 6 6 6 7 7 7 7 7 7 7 7 7 7 8 8 8 8 9 9 10 10 10 10 10 10 10 10
5 5 5 6 6 6 6 6 6 5 5 5 5 5 5 5 6 6 6 6 7 7 7 7 7 7 8 8 8 8 8 8 9 9 9 10 10 10 10 10 10 10 10
5 5 6 6 6 6 6 6 6 6 6 5 5 5 5 5 5 6 6 6 6 6 6 7 7 7 8 8 8 8 8 9 9 9 9 9 9 10 9 9 9 10 10
6 6 6 6 6 6 6 6 6 6 6 5 5 5 5 5 5 6 6 6 6 6 7 7 7 8 8 8 8 8 9 9 9 9 9 9 9 9 9 9 9 9 10
6 6 6 6 7 7 6 6 6 6 6 6 6 5 5 5 5 6 6 6 6 6 7 7 7 8 8 8 8 8 8 8 9 9 9 9 9 9 9 9 9 9 10
6 6 6 7 7 7 7 7 6 6 6 6 6 6 6 6 6 6 6 6 6 6 7 7 7 7 7 7 8 8 8 8 8 9 9 9 9 9 9 9 9 9 10
7 7 7 7 7 7 7 7 7 7 6 6 6 6 6 6 6 6 6 6 6 6 6 6 7 7 7 7 7 8 8 8 8 8 9 9 9 9 9 10 10 10 10
7 7 7 7 7 7 7 7 7 7 7 7 6 6 6 6 6 7 7 7 7 6 6 6 7 7 7 7 7 7 8 8 8 8 9 9 9 9 10 10 10 10 10
7 7 7 7 8 7 8 7 7 7 7 7 7 7 7 7 7 7 7 7 7 7 7 7 7 7 7 7 7 7 8 8 8 8 9 9 9 9 10 10 10 10 10
7 7 7 8 8 8 8 8 8 7 7 7 7 7 7 7 7 7 7 7 7 7 7 7 7 7 7 7 7 7 8 8 8 9 9 9 10 10 10 10 10 10 10
7 8 8 8 8 8 8 8 8 8 8 8 8 8 8 8 8 7 7 7 7 7 7 7 7 8 8 8 8 8 8 8 9 9 9 10 10 10 10 10 10 10 10
7 8 8 8 8 8 9 9 9 9 9 9 9 9 8 8 8 8 8 8 8 8 8 8 8 8 8 8 8 8 8 8 9 9 10 10 10 10 10 10 10 10 10
Wind_Speed
16 15 16 16 16 17 16 16 15 15 15 15 15 14 13 13 12 10 10 10 10 10 9 9 10 10 8 8 9 9 10 10 10 7 5 7 7 5 5 5 6 6 8
17 17 17 17 18 18 19 19 18 17 17 17 16 16 16 15 14 14 13 12 12 11 11 11 10 8 10 9 8 10 10 10 11 11 7 7 7 8 7 6 5 6 8
18 18 18 18 19 19 19 19 19 19 18 18 17 17 17 17 16 15 15 14 13 13 12 12 11 10 10 9 9 9 9 10 10 10 9 7 6 8 8 7 7 6 7
18 18 18 18 19 19 19 19 19 19 19 19 19 18 18 18 18 16 15 15 14 14 13 12 12 11 11 10 9 10 9 10 10 10 9 8 7 8 9 8 6 6 6
18 19 19 19 19 19 19 19 19 19 19 19 19 19 18 17 17 17 16 16 15 15 14 14 13 12 9 8 9 9 9 9 9 10 9 8 8 9 9 8 8 7 5
18 19 19 19 19 19 19 18 19 19 18 18 19 19 19 17 15 15 16 16 15 15 15 14 13 13 13 13 12 11 10 11 11 10 10 11 11 11 10 10 10 9 5
18 19 19 19 19 19 19 18 18 18 17 17 18 17 18 17 14 15 16 16 16 15 15 14 13 13 14 13 14 16 16 16 14 12 12 12 13 13 14 14 13 11 7
18 19 19 19 19 18 18 18 18 16 15 15 16 16 15 15 14 15 16 17 17 16 16 15 14 13 12 12 12 14 15 16 16 15 14 13 12 12 15 15 13 9 9
18 19 19 18 19 18 18 17 16 14 14 14 14 15 15 14 13 15 15 14 15 17 16 15 15 15 12 10 12 14 14 13 14 15 14 11 8 10 12 12 13 12 10
18 18 18 18 17 17 17 15 14 13 13 13 13 13 14 14 13 15 16 14 14 14 14 14 14 14 10 13 13 14 14 13 12 13 13 12 12 13 15 16 15 15 11
17 18 18 17 16 16 15 13 12 11 12 12 12 12 12 13 12 15 16 14 13 13 12 12 12 16 15 13 13 13 12 10 11 11 12 12 12 13 14 14 12 13 13
17 17 17 17 15 14 13 12 11 10 10 10 10 11 9 10 11 13 17 16 13 13 12 11 8 14 15 14 12 12 9 8 10 10 10 10 11 12 12 12 11 8 6
17 17 16 16 14 13 12 11 10 8 7 7 7 8 8 8 8 12 15 16 14 13 11 6 2 10 11 11 13 12 10 10 11 10 10 10 10 12 12 10 10 8 9
17 16 15 14 13 12 9 8 8 7 6 6 6 6 7 7 8 9 12 12 14 14 13 10 9 10 10 9 8 11 11 11 11 10 9 9 9 11 12 12 12 11 11
15 14 14 12 11 10 9 7 7 6 5 6 5 5 5 6 4 3 6 8 9 11 11 11 11 11 12 12 11 11 11 11 11 10 9 10 10 11 12 13 13 13 12
13 12 11 10 9 8 8 6 3 5 4 5 6 6 4 2 2 1 2 3 2 3 7 10 11 11 12 12 12 11 11 11 11 10 10 10 11 13 13 13 13 14 14
13 12 10 9 9 8 8 7 5 2 4 3 3 3 4 4 3 3 4 5 5 7 10 11 11 11 11 11 11 11 11 11 10 10 10 11 12 13 15 15 14 13 14
13 11 11 9 8 7 7 7 6 5 2 1 3 2 3 3 3 4 6 6 6 8 10 10 10 10 10 10 10 10 9 9 10 10 11 12 13 14 15 16 15 15 15
12 9 9 9 8 7 6 6 5 4 3 2 1 2 3 3 4 5 7 6 7 8 9 9 8 9 9 9 8 8 9 9 10 10 10 12 13 14 14 15 15 18 16
9 9 10 9 7 6 6 5 5 4 3 2 2 1 2 3 3 4 6 6 6 6 6 7 7 7 7 7 8 8 9 9 10 10 10 11 12 13 15 16 16 17 15
9 8 8 7 6 6 6 5 5 4 3 3 2 2 3 2 2 3 4 4 4 4 5 5 5 6 6 6 7 9 10 9 10 10 10 11 13 13 14 15 16 15 15
8 8 7 6 6 6 6 5 5 5 4 3 2 1 1 3 2 1 1 2 2 2 2 3 3 4 5 6 8 9 9 10 10 10 11 12 12 13 14 14 14 14 14
8 8 6 5 5 4 4 5 5 5 4 4 3 2 1 1 1 1 1 1 0 0 1 3 4 5 6 6 7 8 9 10 10 12 13 14 14 14 14 15 16 16 16
8 7 5 4 5 5 5 5 5 4 4 4 4 3 3 2 2 2 2 2 3 3 3 4 5 8 10 8 8 8 9 11 12 13 16 16 16 15 15 15 16 17 16
7 6 5 4 4 5 5 5 5 5 5 4 4 4 4 3 3 4 4 4 5 5 6 7 7 9 12 13 11 11 11 10 9 12 14 14 16 16 16 16 15 16 15
7 7 5 5 4 5 4 4 5 5 5 5 5 5 5 5 5 5 5 5 6 7 7 8 10 12 13 13 15 14 11 10 10 8 12 15 16 15 16 14 17 15 16
Wind_Direction
293 291 289 284 281 277 271 266 261 258 258 252 248 246 243 241 237 235 243 245 243 245 246 248 250 253 248 244 239 233 230 232 237 229 189 162 165 167 145 134 128 113 94
299 295 290 287 284 280 275 272 267 262 257 253 250 247 244 242 238 235 238 241 241 243 244 244 244 247 248 244 241 235 231 229 232 231 205 182 176 167 151 143 130 110 99
303 299 295 291 287 283 280 277 272 267 261 256 252 248 245 244 241 237 236 238 239 240 240 240 241 237 243 242 238 239 236 231 231 234 219 187 172 159 148 139 126 117 108
303 300 296 293 290 287 283 279 274 270 265 257 253 248 245 243 240 236 234 234 237 237 238 239 239 236 235 238 236 233 235 236 227 229 223 194 175 166 159 153 147 140 125
302 299 297 296 293 289 285 282 277 272 266 259 253 249 245 242 239 235 233 234 234 237 236 235 236 234 239 239 245 235 228 230 229 223 218 204 186 175 175 170 159 144 129
302 300 299 297 295 292 288 285 281 275 268 263 256 251 246 241 231 218 226 236 236 235 236 236 234 223 221 221 237 247 248 238 233 228 220 213 198 188 180 172 161 158 154
302 300 299 297 294 292 289 286 283 279 273 265 259 254 249 244 231 208 212 230 236 236 236 235 238 230 213 225 221 223 236 241 246 246 236 225 207 191 182 179 179 178 162
304 303 301 299 296 294 290 287 283 279 274 268 262 256 250 244 223 210 207 223 234 236 234 233 234 241 232 229 234 231 230 227 227 233 240 238 226 200 189 183 173 151 131
307 306 304 302 299 295 290 286 284 279 274 268 261 254 247 242 219 206 205 223 228 233 235 233 232 232 222 211 238 244 242 237 225 223 233 239 231 194 180 167 160 154 149
309 308 306 304 300 297 294 289 285 278 272 268 261 253 246 239 214 200 204 226 227 229 229 232 228 231 218 195 229 239 240 238 234 215 216 218 211 186 177 180 173 168 158
311 308 307 305 303 299 296 292 285 276 272 267 261 255 247 238 215 196 201 226 230 228 230 227 225 194 204 204 226 241 246 248 237 227 214 206 199 190 187 187 183 178 172
310 308 308 307 305 303 302 295 289 278 270 264 256 251 245 234 222 202 198 216 238 236 237 236 221 172 186 200 219 237 242 245 241 230 217 204 192 186 184 181 177 176 173
310 309 309 308 306 305 302 298 294 282 268 263 253 244 240 230 211 199 199 207 220 235 241 243 167 158 181 207 221 223 224 229 230 226 217 205 191 179 171 164 153 142 129
311 312 311 311 311 312 308 300 295 291 280 269 260 254 246 236 224 209 208 207 208 224 236 219 191 190 224 251 221 210 221 224 223 221 213 199 180 170 167 161 154 147 140
314 314 314 314 315 315 314 309 308 308 302 286 277 270 256 244 234 220 231 221 217 214 216 221 222 217 216 219 223 222 216 213 215 215 205 189 177 170 166 162 158 155 153
316 317 315 315 317 316 317 319 278 274 291 276 274 286 290 323 26 9 248 260 259 203 217 221 222 221 221 219 218 215 213 211 208 202 194 185 176 168 163 161 161 160 158
316 315 314 315 317 322 325 326 326 272 215 230 247 259 273 307 291 242 210 199 199 197 220 227 226 222 222 221 218 213 209 204 198 193 187 181 173 166 163 163 163 161 158
317 314 313 314 318 325 331 331 331 343 353 127 163 175 221 241 236 209 187 185 198 211 226 228 226 223 220 220 215 209 203 195 191 187 181 177 171 166 165 165 164 162 159
319 322 323 320 324 334 337 338 346 354 359 17 55 137 170 184 186 194 195 215 217 215 222 227 229 226 222 219 213 204 197 191 185 180 175 173 168 166 166 166 162 161 161
319 315 316 322 333 345 351 354 2 9 13 20 24 29 160 181 184 186 206 225 230 224 222 226 227 224 219 215 205 195 189 182 175 171 169 168 166 165 165 163 161 164 167
320 323 314 321 348 355 359 6 10 20 29 36 43 38 349 264 217 206 213 224 231 229 225 227 223 212 202 192 185 181 175 168 164 161 161 162 162 161 162 160 160 164 165
322 329 336 346 357 4 3 11 20 27 28 29 40 112 235 271 282 265 241 234 238 236 233 215 196 175 167 164 161 159 158 155 153 153 153 153 153 156 156 157 160 162 159
324 331 341 349 359 3 4 25 28 27 21 16 18 32 44 340 315 305 280 249 220 129 142 140 142 139 140 143 148 149 149 151 155 155 151 151 152 154 153 155 157 158 160
331 338 347 356 10 15 25 32 35 29 15 10 18 22 21 24 39 47 54 77 101 106 109 118 124 130 132 134 139 145 146 148 150 151 148 148 148 148 150 154 157 159 161
341 349 357 6 17 22 29 33 35 31 28 32 34 36 40 45 56 71 92 103 110 111 117 120 123 126 129 128 128 126 115 119 132 140 144 144 144 146 149 153 155 157 158
349 355 5 12 24 27 30 36 39 41 45 46 47 49 55 59 68 79 92 99 104 105 107 109 112 118 123 122 120 115 112 113 119 132 142 142 144 146 149 151 154 158 159
Height
1480 1477 1474 1472 1470 1468 1467 1465 1464 1463 1462 1462 1461 1461 1461 1461 1461 1461 1461 1462 1462 1463 1463 1464 1464 1467 1469 1471 1474 1476 1479 1482 1484 1487 1488 1488 1488 1490 1491 1492 1493 1493 1494
1474 1471 1468 1465 1462 1460 1458 1457 1456 1455 1454 1454 1454 1454 1454 1455 1455 1455 1456 1457 1457 1458 1458 1459 1459 1460 1461 1464 1467 1469 1472 1475 1478 1481 1483 1484 1484 1486 1488 1489 1491 1491 1492
1467 1463 1460 1457 1454 1452 1449 1448 1446 1445 1444 1445 1445 1445 1446 1447 1448 1448 1449 1450 1451 1452 1453 1454 1454 1455 1455 1457 1460 1462 1465 1469 1472 1475 1477 1479 1481 1482 1484 1486 1488 1489 1490
1460 1456 1452 1449 1446 1442 1440 1438 1436 1435 1434 1434 1434 1435 1437 1438 1439 1441 1442 1443 1444 1446 1447 1447 1448 1449 1451 1452 1453 1456 1459 1462 1465 1469 1471 1474 1476 1478 1480 1483 1485 1487 1489
1453 1449 1445 1441 1437 1434 1431 1428 1426 1424 1423 1423 1423 1424 1426 1428 1430 1432 1434 1436 1437 1439 1440 1441 1442 1444 1445 1446 1449 1450 1453 1456 1459 1462 1465 1468 1471 1473 1476 1479 1482 1484 1487
1446 1441 1437 1433 1429 1425 1421 1418 1416 1414 1413 1412 1412 1413 1415 1418 1421 1423 1426 1428 1430 1432 1433 1435 1436 1437 1438 1440 1442 1445 1447 1450 1454 1456 1458 1462 1464 1467 1471 1474 1478 1481 1484
1439 1434 1429 1425 1420 1416 1412 1409 1406 1404 1403 1402 1402 1403 1405 1407 1411 1414 1417 1420 1423 1425 1426 1428 1430 1432 1433 1435 1436 1438 1441 1443 1447 1449 1452 1456 1459 1462 1465 1469 1473 1477 1480
1432 1427 1422 1417 1412 1407 1403 1400 1397 1395 1393 1392 1392 1393 1395 1397 1401 1405 1408 1412 1415 1417 1419 1421 1423 1425 1428 1430 1432 1434 1436 1437 1439 1442 1446 1450 1454 1457 1461 1465 1469 1473 1477
1426 1420 1415 1410 1404 1399 1395 1391 1388 1386 1384 1384 1384 1384 1386 1389 1392 1396 1400 1404 1407 1410 1412 1415 1417 1419 1421 1423 1426 1428 1430 1432 1434 1437 1440 1444 1448 1452 1455 1460 1464 1468 1472
1419 1413 1408 1403 1397 1392 1388 1384 1381 1378 1377 1376 1376 1376 1378 1381 1384 1388 1392 1397 1400 1403 1405 1407 1410 1412 1415 1417 1419 1422 1424 1426 1429 1431 1434 1437 1442 1446 1450 1454 1458 1463 1467
1413 1407 1402 1396 1391 1386 1381 1377 1374 1371 1370 1369 1369 1370 1371 1373 1377 1381 1385 1390 1393 1396 1399 1401 1403 1405 1408 1410 1413 1416 1418 1421 1423 1425 1428 1431 1435 1440 1444 1449 1454 1459 1463
1407 1402 1396 1390 1386 1381 1376 1372 1369 1366 1364 1364 1364 1364 1365 1367 1370 1374 1378 1383 1387 1390 1393 1396 1398 1399 1402 1404 1407 1409 1412 1414 1417 1419 1422 1425 1428 1433 1438 1444 1449 1455 1460
1402 1396 1390 1385 1380 1376 1372 1368 1364 1362 1360 1360 1359 1359 1361 1362 1365 1368 1372 1376 1380 1383 1387 1390 1392 1394 1396 1399 1400 1403 1405 1408 1411 1413 1415 1419 1423 1428 1434 1439 1445 1451 1457
1397 1392 1386 1381 1376 1372 1368 1365 1362 1359 1358 1357 1356 1356 1357 1358 1361 1363 1367 1370 1373 1376 1380 1383 1386 1388 1390 1393 1395 1396 1398 1401 1404 1407 1410 1414 1418 1423 1429 1434 1440 1447 1453
1393 1388 1383 1378 1374 1369 1365 1362 1359 1357 1355 1354 1354 1354 1354 1356 1357 1360 1362 1365 1368 1371 1374 1377 1379 1382 1383 1386 1388 1390 1393 1395 1398 1401 1405 1409 1413 1419 1424 1431 1437 1444 1450
1390 1385 1380 1376 1372 1368 1364 1361 1358 1355 1353 1352 1351 1351 1352 1353 1354 1356 1358 1361 1363 1366 1369 1371 1373 1375 1377 1379 1382 1384 1386 1389 1392 1395 1399 1404 1409 1414 1420 1427 1434 1441 1448
1388 1383 1378 1374 1370 1367 1363 1360 1357 1355 1352 1351 1350 1349 1350 1351 1352 1353 1355 1357 1359 1361 1363 1365 1367 1369 1371 1373 1375 1378 1380 1383 1387 1390 1394 1399 1405 1410 1417 1423 1431 1438 1446
1385 1381 1377 1373 1370 1366 1363 1359 1356 1354 1352 1351 1350 1349 1349 1349 1350 1351 1353 1354 1355 1356 1358 1360 1361 1363 1365 1368 1370 1373 1375 1378 1382 1386 1391 1396 1401 1407 1414 1421 1429 1436 1443
1384 1380 1376 1373 1369 1366 1363 1360 1357 1354 1353 1351 1350 1349 1349 1349 1349 1350 1351 1351 1352 1353 1354 1355 1357 1359 1361 1363 1365 1368 1371 1374 1378 1383 1387 1392 1399 1405 1412 1420 1427 1435 1442
1383 1379 1376 1373 1370 1366 1363 1360 1358 1355 1354 1352 1351 1350 1349 1349 1349 1349 1349 1349 1350 1350 1350 1351 1352 1354 1356 1358 1360 1363 1367 1371 1375 1379 1385 1390 1397 1403 1411 1418 1425 1433 1441
1383 1379 1376 1373 1370 1367 1364 1362 1359 1357 1355 1353 1352 1351 1350 1350 1349 1349 1348 1348 1347 1347 1347 1347 1348 1349 1351 1354 1357 1360 1364 1368 1373 1378 1384 1390 1396 1403 1411 1418 1425 1433 1440
1383 1380 1377 1375 1372 1369 1366 1364 1362 1359 1357 1356 1354 1352 1351 1350 1349 1348 1348 1347 1346 1346 1346 1346 1346 1348 1350 1352 1356 1360 1364 1367 1372 1377 1384 1390 1396 1404 1411 1419 1426 1433 1439
1383 1381 1378 1376 1374 1371 1368 1366 1364 1362 1360 1358 1356 1354 1353 1351 1350 1348 1348 1347 1347 1346 1346 1346 1347 1349 1351 1353 1357 1361 1364 1369 1374 1380 1386 1392 1398 1405 1412 1419 1426 1433 1439
1385 1382 1380 1378 1376 1373 1371 1369 1367 1365 1363 1361 1358 1356 1354 1353 1351 1350 1349 1348 1348 1348 1348 1349 1350 1352 1354 1357 1360 1364 1368 1373 1378 1384 1390 1395 1402 1408 1415 1421 1428 1434 1440
1386 1383 1381 1379 1378 1376 1374 1372 1370 1368 1366 1364 1362 1360 1358 1356 1354 1353 1352 1352 1352 1352 1352 1353 1355 1357 1359 1362 1365 1369 1373 1378 1383 1388 1394 1400 1405 1412 1417 1424 1429 1435 1441
1388 1385 1383 1382 1380 1379 1377 1376 1374 1372 1370 1368 1366 1364 1363 1361 1360 1359 1358 1358 1358 1358 1359 1360 1362 1363 1366 1369 1371 1375 1379 1384 1389 1394 1399 1404 1409 1415 1421 1426 1432 1437 1442